Location: *
(58.4167°N, 22.5000°E)
Time: 20:07:03
(UTC+00:00)

SL-8 Rocket - Pass Details

Date: 22 September 2019
Orbit: 956 x 991 km, 82.9° (Epoch: 21 October)

Event Time Altitude Azimuth Distance (km) Brightness Sun altitude
Rises 17:03:38 0° 347° (NNW) 3,678 7.3 -5.1°
Reaches altitude 10° 17:06:15 10° 352° (N) 2,723 6.6 -5.5°
Maximum altitude 17:12:19 52° 68° (ENE) 1,192 4.2 -6.3°
Drops below altitude 10° 17:18:18 10° 145° (SE) 2,690 5.9 -7.0°
Sets 17:20:52 0° 150° (SSE) 3,630 6.6 -7.4°
